This demonstration page uses our WeatherBlox Daily Observations layout. Learn more.

Left ArrowRight Arrow

Hourly Observations for December 14, 2021

Temp ( °F °C ) Dew Point ( °F °C ) Humidity (%) Winds ( mph kmh ) Pressure ( in mb ) Visibility ( mi km ) Precip ( " mm )
12:56 am 00:56 Clear 39 3.7 26 -3.1 61 61 ESE 5 7 30.12 1020 10 16 0.00 0.00
1:56 am 01:56 Clear 39 3.7 27 -2.7 63 63 ESE 5 7 30.11 1020 10 16 0.00 0.00
2:56 am 02:56 Clear 37 2.6 27 -2.7 68 68 SE 5 7 30.11 1020 10 16 0.00 0.00
3:56 am 03:56 Clear 37 2.5 27 -2.8 68 68 SSE 7 11 30.09 1019 10 16 0.00 0.00
4:56 am 04:56 Clear 37 3 28 -2.5 67 67 SSE 9 15 30.07 1018 10 16 0.00 0.00
5:56 am 05:56 Clear 37 2.7 28 -2.2 70 70 SSE 9 15 30.07 1018 10 16 0.00 0.00
6:56 am 06:56 Mostly Cloudy 37 2.8 29 -1.9 72 72 S 7 11 30.07 1018 10 16 0.00 0.00
7:56 am 07:56 Mostly Cloudy 38 3.2 29 -1.9 70 70 SSE 7 11 30.08 1019 10 16 0.00 0.00
8:56 am 08:56 undefined 38 3.6 30 -1.2 71 71 E 3 6 30.09 1019 10 16 0.00 0.00
9:02 am 09:02 Sunny 39 4 30 -1 70 70 NNE 1 2 30.06 1018 10 16 0.00 0.00
9:55 am 09:55 Sunny 43 6 32 0 66 66 ESE 3 6 30.06 1018 10 16 0.00 0.00
10:56 am 10:56 Sunny 48 9 36 2 62 62 S 9 15 30.03 1017 10 16 0.00 0.00
11:56 am 11:56 Sunny 54 12 39 4 58 58 S 12 19 29.97 1015 10 16 0.00 0.00
12:56 pm 12:56 Sunny 55 13 39 4 55 55 SE 13 20 N/A 10 16 0.00 0.00
1:26 pm 13:26 Sunny 55 13 39 4 55 55 SE 13 20 29.95 1014 10 16 0.00 0.00
1:56 pm 13:56 Sunny 55 13 39 4 55 55 SE 13 20 N/A 10 16 0.00 0.00
2:56 pm 14:56 Sunny 57 14 43 6 59 59 S 10 17 29.91 1013 10 16 0.00 0.00
3:56 pm 15:56 Sunny 57 14 44 6.4 60 60 S 9 15 29.93 1013 10 16 0.00 0.00
4:56 pm 16:56 Clear 54 12.1 44 6.4 68 68 SSE 3 6 29.93 1014 10 16 0.00 0.00
5:56 pm 17:56 undefined 53 11.5 45 7 74 74 S 3 6 29.92 1013 10 16 0.00 0.00
6:56 pm 18:56 Clear 51 10.8 44 6.7 76 76 SE 3 6 29.92 1013 10 16 0.00 0.00
7:56 pm 19:56 Mostly Cloudy 51 10.5 45 7.2 80 80 SE 3 6 29.90 1012 10 16 0.00 0.00
8:56 pm 20:56 Mostly Cloudy 51 10.5 46 7.6 82 82 ESE 5 7 29.87 1011 10 16 0.00 0.00
9:56 pm 21:56 Cloudy 53 11.9 49 9.5 85 85 SSE 9 15 29.81 1010 10 16 0.00 0.00
10:56 pm 22:56 Mostly Cloudy 54 12.1 49 9.7 85 85 SSE 9 15 29.80 1009 10 16 0.00 0.00
11:56 pm 23:56 Mostly Cloudy 54 12.4 50 9.8 84 84 SSE 15 24 29.78 1009 10 16 0.00 0.00

Powered by AerisWeather